Tracking 29892 objects as of 21-Nov-2024
HD Live streaming from Space Station
objects crossing your sky now

STARLINK-3979

Track STARLINK-3979 now!
10-day predictions
STARLINK-3979 is classified as:


NORAD ID: 52608
Int'l Code: 2022-052L
Perigee: 546.0 km
Apogee: 547.8 km
Inclination: 53.2 °
Period: 95.4 minutes
Semi major axis: 6917 km
RCS: Unknown
Launch date: May 14, 2022
Source: United States (US)
Launch site: AIR FORCE EASTERN TEST RANGE (AFETR)
Your satellite tracking list
Your tracking list is empty




NASA's NSSDC Master Catalog

Two Line Element Set (TLE):
1 52608U 22052L   24325.16713726  .00000531  00000-0  51428-4 0  9994
2 52608  53.2171 249.3301 0001340  90.1994 269.9152 15.08836559139225
Source of the keplerian elements: AFSPC